Home > Weather > Coral Harbour > Past weeks

Flag for Canada Weather for the Past 2 Weeks in Coral Harbour, Nunavut, Canada

Now
-8 °F

Light snow. Overcast.


Feels Like: -26 °F
Forecast: -18 / -11 °F
Wind: 10 mph from Northwest

Location: Coral Harbour

Current Time: Feb 12, 2016 at 11:58:04 PM

Latest Report: Feb 12, 2016 at 11:00 PM


Visibility: 15 mi

Pressure: 30.10 "Hg

Humidity: 77%

Dew point: -13 °F

Location of Coral HarbourLocation

Historic Weather in Coral Harbour — Graph

°F

Coral Harbour Temperature Yesterday

Maximum temperature yesterday: -9 °F (at 2:00 PM)
Minimum temperature yesterday: -22 °F (at 12:00 AM)
Average temperature yesterday: -12 °F

High & Low Weather Summary for the Past Weeks

 TemperatureHumidityPressure
High-6 °F (Jan 31, 11:00 AM)84% (Jan 30, 3:00 AM)30.21 "Hg (Jan 30, 3:00 AM)
Low-38 °F (Feb 10, 2:00 AM)58% (Feb 10, 4:00 AM)29.65 "Hg (Jan 29, 2:00 AM)
Average-21 °F71%29.93 "Hg
* Reported Jan 28 10:00 PM — Feb 12 10:00 PM, Coral Harbour, Weather by CustomWeather, © 2016

Note: Actual official high and low records may vary slightly from our data, if they occured in-between our weather recording intervals... More about our weather records

Advertising

Coral Harbour Weather History for the Previous 24 Hours

 ConditionsComfort  
Time TempWeatherWind HumidityBarometerVisibility
10:00 PM
Fri, Feb 12
-8 °FLight snow. Overcast.10 mph77%30.10 "Hg15 mi
9:00 PM-8 °FLight snow. Overcast.14 mph77%30.10 "Hg12 mi
8:00 PM-8 °FLight snow. Overcast.12 mph77%30.10 "Hg12 mi
7:00 PM-8 °FLight snow. Overcast.13 mph77%30.09 "Hg12 mi
6:00 PM-8 °FLight snow. Low clouds.15 mph77%30.09 "Hg8 mi
5:00 PM-8 °FLight snow. Low clouds.15 mph77%30.08 "Hg6 mi
4:00 PM-8 °FLight snow. Low clouds.16 mph77%30.06 "Hg8 mi
3:00 PM-8 °FLight snow. Low clouds.15 mph77%30.05 "Hg6 mi
2:00 PM-8 °FLight snow. Low clouds.18 mph70%30.04 "Hg3 mi
1:00 PM-6 °FLight snow. Low clouds.16 mph70%30.02 "Hg6 mi
12:00 PM-6 °FLight snow. Low clouds.17 mph70%30.01 "Hg6 mi
11:00 AM-8 °FLight snow. Low clouds.16 mph77%30.00 "Hg2 mi
10:00 AM-8 °FSnow flurries. Low clouds.21 mph77%29.99 "Hg1 mi
9:00 AM-8 °FSnow flurries. Overcast.16 mph77%29.98 "Hg3 mi
8:00 AM-8 °FSnow flurries. Passing clouds.21 mph77%29.97 "Hg3 mi
7:00 AM-8 °FSnow flurries. Passing clouds.21 mph77%29.95 "Hg3 mi
6:00 AM-9 °FSnow flurries. Passing clouds.23 mph77%29.94 "Hg4 mi
5:00 AM-11 °FPassing clouds.22 mph76%29.91 "Hg1 mi
4:00 AM-9 °FPassing clouds.21 mph77%29.90 "Hg1 mi
3:00 AM-9 °FPassing clouds.24 mph77%29.87 "Hg1 mi
2:00 AM-9 °FPassing clouds.25 mph77%29.85 "Hg1 mi
1:00 AM-9 °FPassing clouds.26 mph70%29.85 "Hg1 mi
12:00 AM-11 °FPassing clouds.23 mph76%29.85 "Hg1 mi
11:00 PM
Thu, Feb 11
-11 °FBlizzard. Passing clouds.24 mph76%29.83 "Hg0 mi
Weather by CustomWeather, © 2016

See weather overviewHow to use our weather pages